Ходосовка

Украина / Киевская область     50°15′33″N   30°32′04″E
темп.,
°C
ветер,
м/с
пор.,
м/с
влажн.,
%
обл.,
%
осадки,
мм/ч
давл.,
гПа
погр.,
м
8 мая, сб
сб800:00+10ююз3594100 0.3 1007129
03:00+10юз3696100 0.8 1006193
06:00+10зсз3698100 1.1 1005275
09:00+10з6993100 1.8 1007617
12:00+7зсз7118890 0.8 1010902
15:00+7зсз91283100 1.1 10121064
18:00+8сз6107531 0.3 10151248
21:00+5зсз611886 0.4 1017506
9 мая, вс
вс900:00+4зсз511900 0.0 1019400
03:00+2зсз412850 0.0 1020329
06:00+2зсз49910 0.0 1022223
09:00+8сз57680 0.0 1024656
12:00+12сз565198 0.1 10242004
15:00+13ссз4647100 0.1 10251885
18:00+13сз354964 0.0 10251855
21:00+8всв116412 0.0 102710
10 мая, пн
пн1000:00+6ю22695 0.0 102812
03:00+5ю22750 0.0 102917
06:00+5ююв22785 0.0 102917
09:00+11юв33591 0.0 1030402
12:00+15юв33474 0.0 10291452
15:00+16вюв32430 0.0 10281474
18:00+15в33490 0.0 10271221
21:00+10в33660 0.0 102838
11 мая, вт
вт1100:00+7вюв22750 0.0 102819
03:00+7всв22760 0.0 102712
06:00+6ссв22790 0.0 102725
09:00+12св58590 0.0 1026607
12:00+16св56464 0.0 1024976
15:00+18св56485 0.0 10221095
18:00+17всв586320 0.0 10211250
21:00+13в41080100 0.0 1022599
12 мая, ср
ср1200:00+9всв39951 0.0 1021222
03:00+7всв369476 0.0 1020126
06:00+7всв399142 0.0 1019288
09:00+12в58685 0.0 1018909
12:00+12всв5865100 0.0 10171445
15:00+14в786493 0.8 10151512
18:00+12в576840 0.3 10141231
21:00+9всв4889100 0.6 1014486